• In Hungary
  • List of Countries
  • For 7 days
  • Water Temperature
  • Satellite Maps
  • Weather Map
  • News
  • Weather Widgets
  • user-avatar
    Login

    Hourly Weather Humpolec

    Today, 12 December, Tuesday

    Time Temperature Precipitation Wind Pressure Humidity
    00:00 +5°C° 0 mm 7 mps 693 mmHg 80%
    01:00 +4°C° 0 mm 3 mps 694 mmHg 86%
    02:00 +3°C° 0.1 mm 4 mps 694 mmHg 87%
    03:00 +3°C° 0.1 mm 4 mps 695 mmHg 88%
    04:00 +3°C° 0.1 mm 4 mps 696 mmHg 89%
    05:00 +3°C° 0.2 mm 4 mps 697 mmHg 87%
    06:00 +3°C° 0.2 mm 4 mps 698 mmHg 86%
    07:00 +3°C° 0 mm 4 mps 699 mmHg 85%
    08:00 +2°C° 0 mm 5 mps 700 mmHg 81%
    09:00 +2°C° 0 mm 6 mps 701 mmHg 76%
    10:00 +2°C° 0 mm 7 mps 702 mmHg 71%
    11:00 +2°C° 0 mm 7 mps 703 mmHg 69%
    12:00 +2°C° 0 mm 7 mps 704 mmHg 66%
    13:00 +2°C° 0 mm 7 mps 705 mmHg 64%
    14:00 +1°C° 0 mm 6 mps 706 mmHg 66%
    15:00 -1°C° 0 mm 6 mps 706 mmHg 67%
    16:00 0°C° 0 mm 5 mps 707 mmHg 69%
    17:00 -1°C° 0 mm 5 mps 708 mmHg 71%
    18:00 -1°C° 0 mm 5 mps 709 mmHg 72%
    19:00 -1°C° 0 mm 4 mps 709 mmHg 74%
    20:00 -1°C° 0 mm 4 mps 710 mmHg 75%
    21:00 -2°C° 0 mm 4 mps 710 mmHg 77%
    22:00 -2°C° 0 mm 4 mps 711 mmHg 78%
    23:00 -2°C° 0 mm 4 mps 711 mmHg 79%

    Tomorrow, 13 December, Wednesday

    Time Temperature Precipitation Wind Pressure Humidity
    00:00 -1°C° 0 mm 3 mps 711 mmHg 81%
    01:00 -1°C° 0 mm 3 mps 712 mmHg 82%
    02:00 -2°C° 0 mm 3 mps 712 mmHg 83%
    03:00 -2°C° 0 mm 3 mps 712 mmHg 84%
    04:00 -2°C° 0 mm 3 mps 712 mmHg 85%
    05:00 -4°C° 0 mm 3 mps 712 mmHg 86%
    06:00 -4°C° 0 mm 3 mps 712 mmHg 86%
    07:00 -4°C° 0 mm 3 mps 712 mmHg 87%
    08:00 -4°C° 0 mm 3 mps 712 mmHg 83%
    09:00 -2°C° 0 mm 3 mps 712 mmHg 78%
    10:00 -3°C° 0 mm 4 mps 713 mmHg 74%
    11:00 -2°C° 0 mm 4 mps 712 mmHg 71%
    12:00 0°C° 0 mm 3 mps 711 mmHg 67%
    13:00 0°C° 0 mm 3 mps 711 mmHg 63%
    14:00 0°C° 0 mm 3 mps 710 mmHg 67%
    15:00 -1°C° 0 mm 3 mps 709 mmHg 70%
    16:00 -2°C° 0 mm 3 mps 708 mmHg 74%
    17:00 -2°C° 0 mm 3 mps 708 mmHg 73%
    18:00 -3°C° 0 mm 4 mps 707 mmHg 73%
    19:00 -4°C° 0 mm 4 mps 707 mmHg 72%
    20:00 -3°C° 0 mm 4 mps 706 mmHg 72%
    21:00 -4°C° 0 mm 5 mps 705 mmHg 71%
    22:00 -2°C° 0 mm 5 mps 704 mmHg 70%
    23:00 -2°C° 0.1 mm 5 mps 703 mmHg 71%

    Day after tomorrow, 14 December, Thursday

    Time Temperature Precipitation Wind Pressure Humidity
    00:00 -2°C° 0.1 mm 5 mps 703 mmHg 71%
    01:00 -1°C° 0.1 mm 5 mps 702 mmHg 72%
    02:00 -1°C° 0.3 mm 5 mps 701 mmHg 72%
    03:00 -1°C° 0.3 mm 5 mps 700 mmHg 73%
    04:00 -1°C° 0.3 mm 5 mps 699 mmHg 73%
    05:00 -2°C° 0.3 mm 6 mps 699 mmHg 75%
    06:00 -2°C° 0.3 mm 6 mps 699 mmHg 76%
    07:00 -1°C° 0.3 mm 6 mps 699 mmHg 78%
    08:00 -1°C° 0.1 mm 6 mps 700 mmHg 77%
    09:00 +1°C° 0.1 mm 6 mps 700 mmHg 76%
    10:00 0°C° 0.1 mm 7 mps 701 mmHg 76%
    11:00 0°C° 0 mm 7 mps 701 mmHg 69%
    12:00 0°C° 0 mm 7 mps 702 mmHg 62%
    13:00 0°C° 0 mm 7 mps 702 mmHg 55%
    14:00 -1°C° 0 mm 6 mps 702 mmHg 59%
    15:00 -1°C° 0 mm 5 mps 702 mmHg 63%
    16:00 -1°C° 0 mm 4 mps 701 mmHg 67%
    17:00 -2°C° 0 mm 4 mps 701 mmHg 70%
    18:00 -2°C° 0 mm 4 mps 700 mmHg 73%
    19:00 -2°C° 0 mm 4 mps 700 mmHg 77%
    20:00 -1°C° 0.1 mm 5 mps 699 mmHg 79%
    21:00 -2°C° 0.1 mm 6 mps 698 mmHg 82%
    22:00 -2°C° 0.1 mm 7 mps 697 mmHg 84%
    23:00 -1°C° 0.3 mm 8 mps 696 mmHg 84%

    15 December, Friday

    Time Temperature Precipitation Wind Pressure Humidity
    00:00 0°C° 0.3 mm 9 mps 695 mmHg 84%
    01:00 0°C° 0.3 mm 10 mps 694 mmHg 84%
    02:00 0°C° 0.3 mm 9 mps 695 mmHg 81%
    03:00 0°C° 0.3 mm 8 mps 695 mmHg 78%
    04:00 -1°C° 0.3 mm 8 mps 696 mmHg 75%
    05:00 -1°C° 0 mm 8 mps 697 mmHg 74%
    06:00 -2°C° 0 mm 8 mps 697 mmHg 73%
    07:00 -4°C° 0 mm 8 mps 698 mmHg 72%
    08:00 -4°C° 0 mm 8 mps 699 mmHg 71%
    09:00 -4°C° 0 mm 8 mps 699 mmHg 71%
    10:00 -3°C° 0 mm 7 mps 699 mmHg 71%
    11:00 -2°C° 0 mm 6 mps 700 mmHg 70%
    12:00 0°C° 0 mm 5 mps 700 mmHg 69%
    13:00 0°C° 0 mm 4 mps 700 mmHg 68%
    14:00 0°C° 0.1 mm 4 mps 700 mmHg 73%
    15:00 0°C° 0.1 mm 3 mps 700 mmHg 77%
    16:00 +1°C° 0.1 mm 2 mps 700 mmHg 81%
    17:00 +1°C° 0.1 mm 2 mps 701 mmHg 83%
    18:00 -1°C° 0.1 mm 2 mps 701 mmHg 85%
    19:00 -1°C° 0.1 mm 2 mps 701 mmHg 87%
    20:00 -1°C° 0 mm 3 mps 701 mmHg 87%
    21:00 -1°C° 0 mm 3 mps 701 mmHg 88%
    22:00 -2°C° 0 mm 3 mps 701 mmHg 89%
    23:00 -2°C° 0 mm 2 mps 701 mmHg 89%

    16 December, Saturday

    Time Temperature Precipitation Wind Pressure Humidity
    00:00 -2°C° 0 mm 2 mps 701 mmHg 89%
    01:00 -2°C° 0 mm 2 mps 702 mmHg 89%
    02:00 -3°C° 0 mm 2 mps 702 mmHg 89%
    03:00 -3°C° 0 mm 2 mps 702 mmHg 89%
    04:00 -3°C° 0 mm 2 mps 702 mmHg 89%
    05:00 -3°C° 0 mm 2 mps 702 mmHg 88%
    06:00 -3°C° 0 mm 2 mps 702 mmHg 87%
    07:00 -3°C° 0 mm 2 mps 703 mmHg 87%
    08:00 -2°C° 0.1 mm 2 mps 703 mmHg 85%
    09:00 -2°C° 0.1 mm 3 mps 704 mmHg 84%
    10:00 -1°C° 0.1 mm 3 mps 705 mmHg 83%
    11:00 -2°C° 0.2 mm 4 mps 705 mmHg 82%
    12:00 -2°C° 0.2 mm 4 mps 705 mmHg 81%
    13:00 -1°C° 0.2 mm 5 mps 706 mmHg 80%
    14:00 -2°C° 0 mm 5 mps 706 mmHg 80%
    15:00 -2°C° 0 mm 4 mps 706 mmHg 79%
    16:00 -2°C° 0 mm 4 mps 706 mmHg 79%
    17:00 -3°C° 0 mm 4 mps 707 mmHg 82%
    18:00 -3°C° 0 mm 4 mps 707 mmHg 85%
    19:00 -2°C° 0 mm 3 mps 708 mmHg 87%
    20:00 -3°C° 0.1 mm 4 mps 708 mmHg 88%
    21:00 -3°C° 0.1 mm 4 mps 708 mmHg 89%
    22:00 -3°C° 0.1 mm 4 mps 709 mmHg 90%
    23:00 -3°C° 0.1 mm 4 mps 709 mmHg 90%

    17 December, Sunday

    Time Temperature Precipitation Wind Pressure Humidity
    00:00 -3°C° 0.1 mm 4 mps 709 mmHg 90%
    01:00 -3°C° 0.1 mm 4 mps 709 mmHg 90%
    02:00 -3°C° 0 mm 4 mps 710 mmHg 89%
    03:00 -4°C° 0 mm 4 mps 710 mmHg 89%
    04:00 -4°C° 0 mm 4 mps 710 mmHg 89%
    05:00 -4°C° 0 mm 4 mps 710 mmHg 87%
    06:00 -4°C° 0 mm 4 mps 711 mmHg 86%
    07:00 -4°C° 0 mm 4 mps 711 mmHg 85%
    08:00 -3°C° 0 mm 4 mps 712 mmHg 83%
    09:00 -3°C° 0 mm 4 mps 712 mmHg 81%
    10:00 -4°C° 0 mm 5 mps 713 mmHg 79%
    11:00 -2°C° 0 mm 5 mps 713 mmHg 77%
    12:00 -2°C° 0 mm 5 mps 713 mmHg 75%
    13:00 -2°C° 0 mm 5 mps 713 mmHg 73%
    14:00 -2°C° 0 mm 4 mps 713 mmHg 76%
    15:00 -3°C° 0 mm 4 mps 714 mmHg 79%
    16:00 -2°C° 0 mm 3 mps 714 mmHg 82%
    17:00 -3°C° 0.1 mm 4 mps 714 mmHg 84%
    18:00 -4°C° 0.1 mm 4 mps 715 mmHg 86%
    19:00 -4°C° 0.1 mm 4 mps 715 mmHg 88%
    20:00 -4°C° 0.1 mm 4 mps 716 mmHg 89%
    21:00 -4°C° 0.1 mm 4 mps 716 mmHg 90%
    22:00 -4°C° 0.1 mm 3 mps 716 mmHg 91%
    23:00 -4°C° 0 mm 4 mps 716 mmHg 91%
    Show more